User: anonymous   Login
Location: Caltech
(34.1382°N, 118.1253°W)
Time: 04:49:42
(UTC-07:00)
Language:

Hamsat - Orbit

View from above orbital plane
View from above orbital plane
View from above satellite
View from above satellite

Ground track
Ground track

The orbit data is extracted from the following two-line orbital elements,

1 28650U 05017B   15212.88695255  .00000683  00000-0  80720-4 0  9991
2 28650 097.5774 203.3349 0022608 241.9350 117.9580 14.87538786554099
Epoch (UTC): 31 July 2015 21:17:12
Eccentricity: 0.0022608
inclination: 97.5774°
perigee height: 590 km
apogee height: 621 km
right ascension of ascending node: 203.3349°
argument of perigee: 241.9350°
revolutions per day: 14.87538786
mean anomaly at epoch: 117.9580°
orbit number at epoch: 55409

The dashed part of the orbit path shows where the satellite is in the earth's shadow,  

DLR